Hanford, WA

1:31 AM PDT on June 24, 2017 (GMT -0700)
Hanford

Weather History for KHMS - January, 2013

Change the Weather History Date:

Monday, January 28, 2013

  Actual Average Record
Temperature  
Mean Temperature 30 °F -  
Max Temperature 34 °F 42 °F 56 °F (1999)
Min Temperature 25 °F 28 °F 10 °F (2008)
Degree Days  
Heating Degree Days 36    
Moisture  
Dew Point 29 °F    
Average Humidity 93    
Maximum Humidity 99    
Minimum Humidity 85    
Precipitation  
Precipitation 0.00 in - - ()
Sea Level Pressure  
Sea Level Pressure 29.96 in    
Wind  
Wind Speed 5 mph (NNW)    
Max Wind Speed 8 mph    
Max Gust Speed -    
Visibility 13 miles    
Events      
Averages and records for this station are not official NWS values.
T = Trace of Precipitation, MM = Missing Value Source: NWS Daily Summary

Daily Weather History Graph

Daily Weather History Graph

Search for Another Location

Airport or City:

Trip Planner

Search our weather history database for the weather conditions in past years. The results will help you decide how hot, cold, wet, or windy it might be!

Date:

Astronomy

Jan. 28, 2013 Rise Set
Actual Time 7:26 AM PST 4:56 PM PST
Civil Twilight 6:53 AM PST 5:29 PM PST
Nautical Twilight 6:17 AM PST 6:06 PM PST
Astronomical Twilight 5:41 AM PST 6:41 PM PST
Moon 7:07 PM PST (1/28) 7:45 AM PST (1/28)
Length of Visible Light 10h 35m
Length of Day
9h 30m
Full, 97% of the Moon is Illuminated
Jan 28
Full
Feb 3
Last Quarter
Feb 9
New
Feb 17
First Quarter
Feb 25
Full

Hourly Weather History & Observations

Time (PST) Temp. Windchill Dew Point Humidity Pressure Visibility Wind Dir Wind Speed Gust Speed Precip Events Conditions
12:50 AM 27.1 °F 19.7 °F 26.6 °F 98% 29.96 in 12.0 mi WNW 6.9 mph - N/A   Mostly Cloudy
1:50 AM 26.4 °F 19.8 °F 26.1 °F 99% 29.96 in 12.0 mi WNW 5.8 mph - N/A   Scattered Clouds
3:50 AM 28.9 °F 22.8 °F 28.4 °F 98% 29.98 in 12.0 mi NNW 5.8 mph - N/A   Overcast
4:50 AM 29.1 °F 24.1 °F 28.6 °F 98% 29.98 in 12.0 mi NNW 4.6 mph - N/A   Overcast
5:50 AM 29.1 °F 24.1 °F 28.6 °F 98% 29.98 in 12.0 mi NNW 4.6 mph - 0.00 in   Overcast
6:50 AM 25.7 °F 19.0 °F 25.5 °F 99% 29.99 in 12.0 mi South 5.8 mph - N/A   Overcast
7:50 AM 25.7 °F 17.1 °F 25.5 °F 99% 30.00 in 12.0 mi SSE 8.1 mph - N/A   Overcast
8:50 AM 30.0 °F - 29.7 °F 99% 30.00 in 12.0 mi East 2.3 mph - N/A   Overcast
9:50 AM 31.8 °F 27.3 °F 30.9 °F 96% 29.99 in 12.0 mi South 4.6 mph - N/A   Overcast
10:50 AM 33.1 °F 28.7 °F 31.5 °F 94% 29.99 in 12.0 mi ESE 4.6 mph - N/A   Overcast
11:50 AM 34.9 °F 32.0 °F 31.6 °F 88% 29.99 in 12.0 mi NE 3.5 mph - N/A   Overcast
12:50 PM 34.7 °F 30.6 °F 31.5 °F 88% 29.98 in 15.0 mi North 4.6 mph - N/A   Overcast
1:50 PM 34.5 °F 31.6 °F 30.6 °F 85% 29.97 in 15.0 mi North 3.5 mph - N/A   Overcast
2:50 PM 34.5 °F 31.6 °F 31.3 °F 88% 29.97 in 15.0 mi NW 3.5 mph - N/A   Overcast
3:50 PM 33.6 °F 29.4 °F 30.0 °F 87% 29.93 in 15.0 mi WNW 4.6 mph - N/A   Overcast
4:50 PM 32.5 °F - 30.4 °F 92% 29.93 in 15.0 mi NNW 2.3 mph - N/A   Overcast
5:50 PM 31.5 °F 26.8 °F 29.8 °F 94% 29.92 in 15.0 mi NNW 4.6 mph - N/A   Overcast
6:50 PM 32.0 °F 27.5 °F 30.4 °F 94% 29.91 in 15.0 mi West 4.6 mph - N/A   Overcast
10:50 PM 33.3 °F 27.1 °F 29.8 °F 87% 29.92 in 15.0 mi SSW 6.9 mph - N/A   Overcast
11:50 PM 33.4 °F 30.4 °F 29.5 °F 85% 29.92 in 15.0 mi NNE 3.5 mph - N/A   Overcast